User: anonymous   Login
Location: Dover
(39.1580°N, 75.5250°W)
Time: 02:45:05
(UTC-04:00)
Language:

Cosmos 1437 Rocket - Orbit

View from above orbital plane
View from above orbital plane
View from above satellite
View from above satellite

Ground track
Ground track

The orbit data is extracted from the following two-line orbital elements,

1 13771U 83003B   16237.86330944 +.00000319 +00000-0 +18088-4 0  9991
2 13771 081.1639 344.6089 0039100 268.8651 090.8094 15.09483839829089
Epoch (UTC): 24 August 2016 20:43:09
Eccentricity: 0.0039100
inclination: 81.1639°
perigee height: 511 km
apogee height: 565 km
right ascension of ascending node: 344.6089°
argument of perigee: 268.8651°
revolutions per day: 15.09483839
mean anomaly at epoch: 90.8094°
orbit number at epoch: 82908

The dashed part of the orbit path shows where the satellite is in the earth's shadow,  

DLR